Location: Unspecified
(0.0000°N, 0.0000°E)
Time: 15:10:42
(UTC+00:00)

Hubble Space Telescope - Pass Details

Date: 15 April 2021
Orbit: 535 x 539 km, 28.5° (Epoch: 16 April)

Event Time Altitude Azimuth Distance (km) Brightness Sun altitude
Exits shadow 04:35:52 - 340° (NNW) 2,332 3.9 -20.7°
Reaches altitude 10° 04:38:32 10° 8° (N) 1,770 3.6 -20.1°
Maximum altitude 04:39:52 11° 27° (NNE) 1,685 3.8 -19.7°
Drops below altitude 10° 04:41:13 10° 46° (NE) 1,772 4.2 -19.4°
Sets 04:44:59 0° 81° (E) 2,666 6.0 -18.5°
